User: anonymous   Login
Location: Unspecified
(0.0000°N, 0.0000°E)
Time: 21:16:19
(UTC+00:00)
Language:

MERIDIAN 2 - Orbit

View from above orbital plane
View from above orbital plane
View from above satellite
View from above satellite

Ground track
Ground track

The orbit data is extracted from the following two-line orbital elements,

1 35008U 09029A   21113.17436894  .99999999  84750-5  53592-3 0  9994
2 35008  62.9229 132.8490 0188760 266.4628 205.8679 16.29926844 98745
Epoch (UTC): 23 April 2021 04:11:05
Eccentricity: 0.0188760
inclination: 62.9229°
perigee height: 69 km
apogee height: 317 km
right ascension of ascending node: 132.8490°
argument of perigee: 266.4628°
revolutions per day: 16.29926844
mean anomaly at epoch: 205.8679°
orbit number at epoch: 9874

The dashed part of the orbit path shows where the satellite is in the earth's shadow,  

DLR